Location: Hawks Ness
(60.2333°N, 1.1667°W)
Time: 05:53:51
(UTC+00:00)

Cosmos 1867 - Pass Details

Date: 22 October 2019
Orbit: 776 x 800 km, 65.0° (Epoch: 18 November)

Event Time Altitude Azimuth Distance (km) Brightness Sun altitude
Exits shadow 03:12:53 51° 340° (NNW) 1,008 4.0 -28.2°
Maximum altitude 03:13:19 52° 357° (N) 993 4.1 -28.1°
Drops below altitude 10° 03:18:41 10° 74° (ENE) 2,382 7.0 -27.5°
Sets 03:21:11 0° 80° (E) 3,311 7.9 -27.3°
